Location: Chequamegon National Forest
(46.1070°N, 90.8420°W)
Time: 19:06:28
(UTC-06:00)

Amateur Radio Satellites - All Passes

Search period start: 19 January 2018 18:36
Search period end: 20 January 2018 18:36
Location: Chequamegon National Forest, 46.1070°N, 90.8420°W

Satellite Date Start Highest point End Downlink Frequencies (MHz)
Time Altitude Azimuth
HO-68 19 Jan 18:51:07 18:57:56 46° 261° (W) 19:04:47 435.675
STRAND 1 19 Jan 18:51:30 18:55:55 28° 95° (E) 19:00:19 437.568
AAUSAT CUBESAT 2 19 Jan 18:53:27 18:57:34 76° 75° (ENE) 19:01:42 437.432
Oscar 11 19 Jan 18:56:25 19:00:19 33° 68° (ENE) 19:04:14 .
SEEDS 19 Jan 19:07:51 19:11:41 33° 264° (W) 19:15:32 437.485
BEESAT 2 19 Jan 19:08:08 19:12:08 63° 52° (NE) 19:16:04 435.950
RS-15 19 Jan 19:11:29 19:20:57 31° 257° (WSW) 19:30:07 29.354- 29.394
CUBEBUG 2 19 Jan 19:14:52 19:18:42 29° 266° (W) 19:22:39 437.445
XW-2A 19 Jan 19:17:30 19:20:54 61° 259° (W) 19:24:18 145.665 - 145.685
CUTE 1.7 + AOD 2 19 Jan 19:18:49 19:21:40 17° 269° (W) 19:24:32 437.475
UWE-3 19 Jan 19:22:44 19:26:54 42° 263° (W) 19:31:15 435.000/436.395/437.385
FO-29 19 Jan 19:39:11 19:43:51 32° 95° (E) 19:48:28 435.910
NO-84 19 Jan 19:42:16 19:44:29 19° 343° (NNW) 19:46:39 435.350 FM
DELFI C3 19 Jan 19:44:45 19:47:38 20° 65° (ENE) 19:50:31 145.870
AO-85 19 Jan 19:47:12 19:51:38 35° 44° (NE) 19:56:20 145.980
ZACube-1 19 Jan 19:49:35 19:53:47 41° 263° (W) 19:58:06 437.345
AO-73 19 Jan 19:57:18 20:01:27 39° 263° (W) 20:05:43 145.935
PCSat 19 Jan 20:01:43 20:06:32 33° 249° (WSW) 20:11:18 145.827
BEESAT 3 19 Jan 20:03:35 20:04:39 11° 251° (WSW) 20:05:43 437.485
STRAND 1 19 Jan 20:30:24 20:35:13 41° 292° (WNW) 20:40:00 437.568
AAUSAT CUBESAT 2 19 Jan 20:32:41 20:33:31 11° 272° (W) 20:34:22 437.432
Oscar 11 19 Jan 20:32:49 20:36:28 26° 266° (W) 20:40:10 .
Max Valier Satellite 19 Jan 20:40:03 20:43:41 52° 73° (ENE) 20:47:21 145.860
BEESAT 2 19 Jan 20:47:08 20:49:21 15° 249° (WSW) 20:51:34 435.950
nSIGHT-1 19 Jan 20:48:30 20:51:14 27° 141° (SE) 20:53:59 .
ISS 19 Jan 20:56:20 20:59:00 23° 139° (SE) 21:01:40 437.550
ESTCUBE 1 19 Jan 21:01:19 21:02:16 11° 56° (ENE) 21:03:12 437.505/2401.250
EO-88 19 Jan 21:02:05 21:05:42 63° 74° (ENE) 21:09:20 145.990 - 145.960
DELFI C3 19 Jan 21:18:30 21:22:08 36° 263° (W) 21:25:47 145.870
NO-84 19 Jan 21:20:49 21:22:28 14° 5° (N) 21:24:07 435.350 FM
FO-29 19 Jan 21:24:19 21:29:02 35° 295° (WNW) 21:33:41 435.910
AO-85 19 Jan 21:27:30 21:32:11 44° 241° (WSW) 21:37:09 145.980
TIGRISAT 19 Jan 21:35:56 21:40:30 48° 99° (E) 21:45:03 435.000
UNISAT 6 19 Jan 21:50:48 21:55:31 74° 103° (ESE) 22:00:12 437.425
Max Valier Satellite 19 Jan 22:16:07 22:17:49 13° 270° (W) 22:19:30 145.860
nSIGHT-1 19 Jan 22:24:09 22:27:15 54° 338° (NNW) 22:30:23 .
LO-87 19 Jan 22:25:30 22:29:03 81° 77° (ENE) 22:32:39 145.935 - 145.965
PRISM 19 Jan 22:26:49 22:30:37 37° 98° (E) 22:34:25 437.425
ISS 19 Jan 22:32:00 22:35:15 63° 336° (NNW) 22:38:31 437.550
ESTCUBE 1 19 Jan 22:33:45 22:38:17 78° 74° (ENE) 22:42:49 437.505/2401.250
YUBILEINY 19 Jan 22:39:11 22:47:35 52° 89° (E) 22:55:59 435.215
EO-88 19 Jan 22:39:33 22:39:43 10° 271° (W) 22:39:53 145.990 - 145.960
VELOX 1 19 Jan 22:41:07 22:43:39 15° 60° (ENE) 22:46:10 145.980
SPROUT 19 Jan 22:46:34 22:50:07 27° 66° (ENE) 22:53:42 437.525
NO-84 19 Jan 22:57:41 23:00:17 31° 26° (NNE) 23:02:56 435.350 FM
QB50P2 19 Jan 22:59:21 23:01:57 16° 90° (E) 23:04:32 145.880/145.840
TIGRISAT 19 Jan 23:13:16 23:16:52 22° 297° (WNW) 23:20:27 435.000
UNISAT 6 19 Jan 23:28:53 23:31:39 16° 300° (WNW) 23:34:23 437.425
EO-79 19 Jan 23:29:52 23:33:36 28° 95° (E) 23:37:19 145.935-145.965
DUCHIFAT 1 19 Jan 23:30:29 23:33:50 22° 93° (E) 23:37:10 145.980
AIST 2D 19 Jan 23:36:47 23:40:14 63° 284° (WNW) 23:43:39 435.315
nSIGHT-1 20 Jan 00:01:01 00:03:51 28° 359° (N) 00:06:40 .
PRISM 20 Jan 00:02:34 00:05:40 21° 295° (WNW) 00:08:47 437.425
POLYITAN 1 20 Jan 00:04:10 00:08:28 65° 102° (ESE) 00:12:43 437.675
ISS 20 Jan 00:09:10 00:12:07 30° 356° (N) 00:15:04 437.550
ESTCUBE 1 20 Jan 00:13:54 00:15:37 12° 272° (W) 00:17:21 437.505/2401.250
VELOX 1 20 Jan 00:15:13 00:19:34 66° 258° (WSW) 00:23:57 145.980
NANOSAT C BR1 20 Jan 00:20:58 00:25:15 87° 104° (ESE) 00:29:32 145.865
SPROUT 20 Jan 00:22:06 00:25:54 31° 264° (W) 00:29:44 437.525
50 SAT 20 Jan 00:25:54 00:28:24 23° 68° (ENE) 00:30:55 437.505
UKube-1 20 Jan 00:26:48 00:30:10 23° 64° (ENE) 00:33:32 .
Oscar 19 20 Jan 00:27:37 00:30:39 16° 89° (E) 00:33:41 437.125/150
QB50P2 20 Jan 00:33:52 00:38:04 55° 288° (WNW) 00:42:15 145.880/145.840
NO-84 20 Jan 00:34:49 00:37:24 30° 223° (SW) 00:40:04 435.350 FM
DX 1 20 Jan 00:35:16 00:39:21 43° 70° (ENE) 00:43:28 434.975-435.025
BUGSAT 1 20 Jan 00:36:21 00:39:57 26° 95° (E) 00:43:32 437.445
YUBILEINY 20 Jan 00:36:26 00:44:36 41° 291° (WNW) 00:52:48 435.215
O/OREOS (USA 219) 20 Jan 00:36:59 00:41:24 59° 111° (ESE) 00:45:51 437.305
EO-79 20 Jan 01:05:35 01:09:19 30° 293° (WNW) 01:13:02 145.935-145.965
DUCHIFAT 1 20 Jan 01:05:39 01:09:36 37° 291° (WNW) 01:13:31 145.980
ITUPSAT 1 20 Jan 01:18:25 01:21:19 16° 58° (ENE) 01:24:13 437.325
AO-91 20 Jan 01:21:17 01:25:34 54° 101° (E) 01:30:18 145.960
nSIGHT-1 20 Jan 01:37:24 01:40:29 45° 18° (NNE) 01:43:33 .
POLYITAN 1 20 Jan 01:41:18 01:43:44 15° 299° (WNW) 01:46:08 437.675
Gurwin Techsat 1B 20 Jan 01:42:14 01:47:28 54° 101° (E) 01:52:39 435.225
ISS 20 Jan 01:45:57 01:49:06 42° 16° (NNE) 01:52:15 437.550
BEESAT 20 Jan 01:57:09 02:01:26 35° 67° (ENE) 02:05:45 436.000
50 SAT 20 Jan 01:57:51 02:00:05 18° 265° (W) 02:02:20 437.505
MOZHAYETS 4 20 Jan 01:57:56 02:02:26 54° 72° (ENE) 02:07:00
NANOSAT C BR1 20 Jan 01:58:51 02:00:17 12° 302° (WNW) 02:01:43 145.865
CUBESAT XI-V 20 Jan 01:59:50 02:02:53 17° 61° (ENE) 02:05:56 437.345
UKube-1 20 Jan 02:01:57 02:05:58 39° 262° (W) 02:10:01 .
Oscar 19 20 Jan 02:05:21 02:10:33 74° 287° (WNW) 02:15:40 437.125/150
BUGSAT 1 20 Jan 02:11:31 02:15:18 32° 292° (WNW) 02:19:04 437.445
DX 1 20 Jan 02:12:31 02:15:44 20° 267° (W) 02:18:57 434.975-435.025
O/OREOS (USA 219) 20 Jan 02:17:57 02:21:12 19° 310° (NW) 02:24:27 437.305
ITUPSAT 1 20 Jan 02:53:48 02:58:34 73° 257° (WSW) 03:03:23 437.325
AO-91 20 Jan 02:58:44 03:01:44 19° 295° (WNW) 03:04:57 145.960
ITAMSAT 1 20 Jan 03:09:36 03:13:55 26° 94° (E) 03:18:14 435.822/435.867
nSIGHT-1 20 Jan 03:13:40 03:16:37 37° 217° (SW) 03:19:36 .
ISS 20 Jan 03:22:28 03:25:37 45° 215° (SW) 03:28:46 437.550
AO-7 20 Jan 03:22:40 03:30:52 54° 102° (ESE) 03:38:59 .
Gurwin Techsat 1B 20 Jan 03:22:52 03:27:04 24° 299° (WNW) 03:31:13 435.225
BEESAT 20 Jan 03:35:03 03:39:12 30° 264° (W) 03:43:25 436.000
CUBESAT XI-V 20 Jan 03:35:06 03:39:46 64° 259° (WSW) 03:44:26 437.345
KKS-1 20 Jan 03:35:32 03:39:04 24° 64° (ENE) 03:42:37 437.445
MOZHAYETS 4 20 Jan 03:36:46 03:39:55 18° 269° (W) 03:43:06
DOVE 4 20 Jan 03:40:00 03:41:54 12° 90° (E) 03:43:49 437.250
Oscar 19 20 Jan 03:46:57 03:48:58 12° 306° (NW) 03:50:58 437.125/150
STARS 20 Jan 03:55:22 03:58:04 16° 60° (ENE) 04:00:45 437.465
M-CUBED/EXP-1 PRIME 20 Jan 04:22:15 04:24:27 16° 98° (E) 04:26:36 437.505
ITAMSAT 1 20 Jan 04:48:37 04:53:34 45° 292° (WNW) 04:58:30 435.822/435.867
SO-50 20 Jan 04:59:01 05:02:36 24° 114° (ESE) 05:06:15 436.795
LilacSat-2 20 Jan 05:09:35 05:11:53 15° 91° (E) 05:14:10 437.200
KKS-1 20 Jan 05:11:18 05:15:25 38° 262° (W) 05:19:35 437.445
XW-2C 20 Jan 05:13:02 05:15:20 15° 91° (E) 05:17:37 145.795 - 145.815
DOVE 4 20 Jan 05:15:43 05:20:00 70° 286° (WNW) 05:24:29 437.250
AO-7 20 Jan 05:15:46 05:23:24 41° 303° (WNW) 05:31:01 .
STARS 20 Jan 05:29:37 05:33:55 61° 258° (WSW) 05:38:16 437.465
XW-2F 20 Jan 05:49:25 05:52:54 36° 97° (E) 05:56:21 145.980 - 146.000
KAITUO 1B 20 Jan 05:49:30 05:52:43 27° 96° (E) 05:55:55 145.475/437.950
FO-29 20 Jan 05:54:18 05:59:22 24° 61° (ENE) 06:04:01 435.910
M-CUBED/EXP-1 PRIME 20 Jan 05:55:57 05:59:01 31° 297° (WNW) 06:01:58 437.505
XW-2D 20 Jan 05:58:10 06:01:52 52° 100° (E) 06:05:31 145.860 - 145.880
FALCONSAT 3 20 Jan 05:58:55 06:01:08 15° 176° (S) 06:03:20 435.103
NUDT-PHONESAT 20 Jan 06:02:04 06:05:29 36° 97° (E) 06:08:53 437.300
STRAND 1 20 Jan 06:09:37 06:14:32 51° 70° (ENE) 06:19:30 437.568
CUTE-I 20 Jan 06:14:47 06:20:02 55° 101° (E) 06:25:15 437.470
XW-2B 20 Jan 06:15:41 06:19:29 82° 103° (ESE) 06:23:13 145.730 - 145.750
HO-68 20 Jan 06:15:46 06:22:04 32° 95° (E) 06:28:20 435.675
SO-50 20 Jan 06:38:28 06:42:48 47° 313° (NW) 06:47:13 436.795
LilacSat-2 20 Jan 06:42:46 06:46:22 42° 289° (WNW) 06:49:57 437.200
XW-2C 20 Jan 06:46:09 06:49:44 42° 288° (WNW) 06:53:16 145.795 - 145.815
SEEDS 20 Jan 06:48:37 06:52:23 32° 96° (E) 06:56:05 437.485
CUTE 1.7 + AOD 2 20 Jan 06:59:09 07:03:23 69° 102° (ESE) 07:07:33 437.475
CUBEBUG 2 20 Jan 07:01:59 07:06:38 50° 99° (E) 07:11:15 437.445
UWE-3 20 Jan 07:09:24 07:13:41 34° 96° (E) 07:17:54 435.000/436.395/437.385
AO-7 20 Jan 07:11:07 07:13:55 12° 326° (NNW) 07:16:45 .
UNISAT 6 20 Jan 07:18:51 07:20:10 11° 57° (ENE) 07:21:31 437.425
KAITUO 1B 20 Jan 07:23:38 07:26:34 23° 293° (WNW) 07:29:29 145.475/437.950
RS-15 20 Jan 07:23:45 07:34:49 42° 108° (ESE) 07:45:43 29.354- 29.394
XW-2F 20 Jan 07:24:07 07:26:45 18° 295° (WNW) 07:29:22 145.980 - 146.000
XW-2D 20 Jan 07:33:38 07:35:36 14° 297° (WNW) 07:37:33 145.860 - 145.880
ZACube-1 20 Jan 07:35:06 07:39:15 33° 95° (E) 07:43:19 437.345
NUDT-PHONESAT 20 Jan 07:36:32 07:39:04 18° 295° (WNW) 07:41:34 437.300
FO-29 20 Jan 07:37:12 07:44:04 69° 258° (WSW) 07:50:06 435.910
FALCONSAT 3 20 Jan 07:37:37 07:39:25 13° 191° (S) 07:41:12 435.103
AO-73 20 Jan 07:42:23 07:46:34 34° 96° (E) 07:50:39 145.935
STRAND 1 20 Jan 07:50:07 07:54:01 22° 268° (W) 07:57:58 437.568
CUTE-I 20 Jan 07:55:33 07:59:42 24° 299° (WNW) 08:03:51 437.470
HO-68 20 Jan 08:03:10 08:10:07 56° 294° (WNW) 08:17:03 435.675
AAUSAT CUBESAT 2 20 Jan 08:08:02 08:12:09 81° 283° (WNW) 08:16:14 437.432
XW-2A 20 Jan 08:08:49 08:12:12 85° 284° (WNW) 08:15:32 145.665 - 145.685
Oscar 11 20 Jan 08:16:30 08:20:42 47° 99° (E) 08:24:51 .
SO-50 20 Jan 08:22:19 08:24:23 13° 335° (NNW) 08:26:29 436.795
SEEDS 20 Jan 08:24:30 08:27:56 25° 293° (WNW) 08:31:20 437.485
CUTE 1.7 + AOD 2 20 Jan 08:36:35 08:38:40 14° 299° (WNW) 08:40:44 437.475
TIGRISAT 20 Jan 08:36:42 08:41:00 54° 72° (ENE) 08:45:27 435.000
CUBEBUG 2 20 Jan 08:39:17 08:42:53 22° 297° (WNW) 08:46:30 437.445
UWE-3 20 Jan 08:45:59 08:50:01 29° 294° (WNW) 08:54:01 435.000/436.395/437.385
YUBILEINY 20 Jan 08:46:12 08:53:36 29° 64° (ENE) 09:00:54 435.215
UNISAT 6 20 Jan 08:51:39 08:56:05 84° 74° (ENE) 09:00:40 437.425
DELFI C3 20 Jan 08:52:40 08:55:44 21° 94° (E) 08:58:47 145.870
PCSat 20 Jan 09:03:23 09:07:28 22° 107° (ESE) 09:11:33 145.827
O/OREOS (USA 219) 20 Jan 09:05:39 09:09:14 23° 52° (NE) 09:12:47 437.305
ZACube-1 20 Jan 09:11:29 09:15:25 29° 294° (WNW) 09:19:19 437.345
PRISM 20 Jan 09:18:06 09:21:51 37° 69° (ENE) 09:25:36 437.425
AO-73 20 Jan 09:18:47 09:22:39 28° 294° (WNW) 09:26:28 145.935
FO-29 20 Jan 09:28:01 09:29:57 11° 274° (W) 09:31:51 435.910
RS-15 20 Jan 09:34:20 09:46:40 71° 312° (NW) 09:58:47 29.354- 29.394
Max Valier Satellite 20 Jan 09:40:50 09:44:27 49° 100° (E) 09:48:02 145.860
NANOSAT C BR1 20 Jan 09:43:18 09:44:05 10° 58° (ENE) 09:44:54 145.865
BEESAT 3 20 Jan 09:51:59 09:55:53 58° 122° (ESE) 09:59:49 437.485
HO-68 20 Jan 09:53:09 09:56:22 14° 315° (NW) 09:59:35 435.675
Oscar 11 20 Jan 09:53:25 09:56:30 19° 297° (WNW) 09:59:35 .
QB50P2 20 Jan 09:54:22 09:57:07 17° 62° (ENE) 09:59:54 145.880/145.840
EO-88 20 Jan 10:01:21 10:04:57 57° 101° (E) 10:08:30 145.990 - 145.960
AIST 2D 20 Jan 10:12:36 10:16:04 63° 75° (ENE) 10:19:34 435.315
TIGRISAT 20 Jan 10:15:09 10:18:04 17° 270° (W) 10:21:01 435.000
EO-79 20 Jan 10:24:26 10:28:06 29° 67° (ENE) 10:31:48 145.935-145.965
DUCHIFAT 1 20 Jan 10:24:31 10:27:50 23° 65° (ENE) 10:31:11 145.980
ESTCUBE 1 20 Jan 10:25:10 10:27:26 14° 89° (E) 10:29:41 437.505/2401.250
DELFI C3 20 Jan 10:27:00 10:30:31 32° 290° (WNW) 10:34:02 145.870
UNISAT 6 20 Jan 10:32:18 10:33:27 11° 274° (W) 10:34:36 437.425
BEESAT 2 20 Jan 10:38:15 10:42:07 47° 120° (ESE) 10:46:02 435.950
YUBILEINY 20 Jan 10:42:32 10:51:13 71° 266° (W) 10:59:49 435.215
O/OREOS (USA 219) 20 Jan 10:44:35 10:48:51 46° 252° (WSW) 10:53:08 437.305
PCSat 20 Jan 10:45:02 10:50:24 62° 306° (NW) 10:55:48 145.827
PRISM 20 Jan 10:54:10 10:57:14 20° 267° (W) 11:00:18 437.425
POLYITAN 1 20 Jan 10:58:36 11:02:47 66° 74° (ENE) 11:07:02 437.675
NANOSAT C BR1 20 Jan 11:14:51 11:19:04 86° 76° (ENE) 11:23:20 145.865
Max Valier Satellite 20 Jan 11:15:51 11:17:51 14° 297° (WNW) 11:19:51 145.860
LO-87 20 Jan 11:22:43 11:26:21 70° 102° (ESE) 11:29:58 145.935 - 145.965
QB50P2 20 Jan 11:28:21 11:32:30 53° 260° (W) 11:36:41 145.880/145.840
BUGSAT 1 20 Jan 11:28:21 11:31:44 25° 66° (ENE) 11:35:10 437.445
Gurwin Techsat 1B 20 Jan 11:28:22 11:31:50 18° 58° (ENE) 11:35:19 435.225
BEESAT 3 20 Jan 11:30:41 11:33:44 21° 321° (NW) 11:36:47 437.485
EO-88 20 Jan 11:36:37 11:38:06 12° 298° (WNW) 11:39:36 145.990 - 145.960
AO-85 20 Jan 11:44:36 11:48:09 32° 116° (ESE) 11:51:56 145.980
Oscar 19 20 Jan 11:46:15 11:50:45 31° 64° (ENE) 11:55:16 437.125/150
SO-50 20 Jan 11:47:23 11:49:41 13° 26° (NNE) 11:51:59 436.795
RS-15 20 Jan 11:50:48 12:01:42 35° 342° (NNW) 12:12:19 29.354- 29.394
DUCHIFAT 1 20 Jan 11:59:24 12:03:17 36° 263° (W) 12:07:14 145.980
EO-79 20 Jan 12:00:10 12:03:49 28° 265° (W) 12:07:30 145.935-145.965
ESTCUBE 1 20 Jan 12:00:13 12:04:41 68° 287° (WNW) 12:09:08 437.505/2401.250
VELOX 1 20 Jan 12:03:13 12:06:21 19° 92° (E) 12:09:29 145.980
SPROUT 20 Jan 12:04:29 12:08:26 34° 97° (E) 12:12:21 437.525
BEESAT 2 20 Jan 12:16:44 12:20:02 24° 320° (NW) 12:23:22 435.950
AO-91 20 Jan 12:21:50 12:25:06 51° 73° (ENE) 12:28:31 145.960
PCSat 20 Jan 12:31:34 12:34:54 16° 328° (NNW) 12:38:15 145.827
AO-7 20 Jan 12:34:21 12:40:43 25° 48° (NE) 12:47:04 .
POLYITAN 1 20 Jan 12:37:04 12:39:01 13° 271° (W) 12:40:57 437.675
YUBILEINY 20 Jan 12:42:02 12:46:18 15° 288° (WNW) 12:50:33 435.215
LO-87 20 Jan 12:58:34 12:59:11 10° 299° (WNW) 12:59:47 145.935 - 145.965
BUGSAT 1 20 Jan 13:03:20 13:06:57 31° 264° (W) 13:10:41 437.445
Gurwin Techsat 1B 20 Jan 13:05:51 13:11:10 76° 257° (WSW) 13:16:31 435.225
50 SAT 20 Jan 13:10:03 13:11:25 12° 92° (E) 13:12:48 437.505
AO-85 20 Jan 13:24:50 13:28:31 32° 317° (NW) 13:32:29 145.980
Oscar 19 20 Jan 13:25:04 13:29:56 40° 262° (W) 13:34:50 437.125/150
SO-50 20 Jan 13:26:41 13:31:14 48° 47° (NE) 13:35:51 436.795
VELOX 1 20 Jan 13:38:49 13:43:02 47° 289° (WNW) 13:47:15 145.980
SPROUT 20 Jan 13:40:37 13:44:09 25° 294° (WNW) 13:47:40 437.525
UKube-1 20 Jan 13:46:11 13:49:52 27° 95° (E) 13:53:31 .
MOZHAYETS 4 20 Jan 13:53:11 13:53:59 10° 86° (E) 13:54:47
DX 1 20 Jan 13:56:30 14:00:46 56° 101° (E) 14:05:02 434.975-435.025
RS-15 20 Jan 14:07:54 14:18:36 34° 16° (NNE) 14:28:47 29.354- 29.394
AO-7 20 Jan 14:24:03 14:32:25 87° 70° (ENE) 14:40:52 .
ITAMSAT 1 20 Jan 14:29:47 14:34:46 52° 70° (ENE) 14:39:47 435.822/435.867
50 SAT 20 Jan 14:40:25 14:43:18 35° 289° (WNW) 14:46:10 437.505
DOVE 4 20 Jan 14:47:54 14:50:38 17° 63° (ENE) 14:53:19 437.250
Gurwin Techsat 1B 20 Jan 14:51:11 14:52:00 10° 275° (W) 14:52:49 435.225
ITUPSAT 1 20 Jan 14:52:09 14:56:01 24° 94° (E) 14:59:51 437.325
SO-50 20 Jan 15:07:35 15:11:29 26° 246° (WSW) 15:15:24 436.795
M-CUBED/EXP-1 PRIME 20 Jan 15:08:28 15:12:32 41° 65° (ENE) 15:16:20 437.505
UKube-1 20 Jan 15:22:03 15:25:53 32° 293° (WNW) 15:29:42 .
MOZHAYETS 4 20 Jan 15:27:08 15:31:49 90° 151° (SSE) 15:36:26
CUBESAT XI-V 20 Jan 15:29:22 15:33:16 26° 94° (E) 15:37:05 437.345
BEESAT 20 Jan 15:31:36 15:36:20 56° 101° (E) 15:41:02 436.000
DX 1 20 Jan 15:33:42 15:36:32 17° 299° (WNW) 15:39:23 434.975-435.025
LilacSat-2 20 Jan 15:54:36 15:56:18 13° 62° (ENE) 15:58:01 437.200
XW-2C 20 Jan 15:57:27 15:59:05 12° 62° (ENE) 16:00:42 145.795 - 145.815
CUTE-I 20 Jan 16:01:28 16:05:02 19° 58° (ENE) 16:08:36 437.470
PCSat 20 Jan 16:05:34 16:07:07 11° 22° (NNE) 16:08:39 145.827
ITAMSAT 1 20 Jan 16:10:30 16:14:31 23° 267° (W) 16:18:33 435.822/435.867
AO-7 20 Jan 16:20:04 16:26:12 22° 270° (W) 16:32:22 .
RS-15 20 Jan 16:21:47 16:33:40 69° 47° (NE) 16:44:51 29.354- 29.394
DOVE 4 20 Jan 16:23:49 16:27:59 50° 260° (W) 16:32:04 437.250
ITUPSAT 1 20 Jan 16:29:26 16:34:01 44° 291° (WNW) 16:38:34 437.325
BEESAT 3 20 Jan 16:29:46 16:31:53 14° 32° (NNE) 16:33:59 437.485
KAITUO 1B 20 Jan 16:31:51 16:34:39 20° 66° (ENE) 16:37:26 145.475/437.950
XW-2F 20 Jan 16:32:24 16:35:36 26° 68° (ENE) 16:38:48 145.980 - 146.000
XW-2D 20 Jan 16:41:21 16:44:53 36° 70° (ENE) 16:48:24 145.860 - 145.880
NUDT-PHONESAT 20 Jan 16:43:14 16:46:18 25° 68° (ENE) 16:49:23 437.300
M-CUBED/EXP-1 PRIME 20 Jan 16:43:41 16:46:59 21° 260° (W) 16:50:10 437.505
HO-68 20 Jan 16:47:23 16:53:33 33° 58° (ENE) 16:59:43 435.675
XW-2B 20 Jan 16:58:41 17:02:26 54° 73° (ENE) 17:06:11 145.730 - 145.750
KKS-1 20 Jan 16:59:20 17:03:19 31° 97° (E) 17:07:18 437.445
MOZHAYETS 4 20 Jan 17:06:16 17:08:15 13° 302° (WNW) 17:10:13
CUBESAT XI-V 20 Jan 17:06:28 17:10:41 37° 292° (WNW) 17:14:54 437.345
BEESAT 20 Jan 17:10:13 17:13:42 20° 299° (WNW) 17:17:10 436.000
BEESAT 2 20 Jan 17:16:50 17:18:46 13° 31° (NNE) 17:20:42 435.950
STARS 20 Jan 17:16:51 17:20:06 20° 93° (E) 17:23:20 437.465
LilacSat-2 20 Jan 17:26:14 17:30:05 63° 259° (W) 17:33:55 437.200
NO-84 20 Jan 17:27:19 17:30:20 60° 141° (SE) 17:33:12 435.350 FM
AAUSAT CUBESAT 2 20 Jan 17:28:47 17:29:14 10° 59° (ENE) 17:29:41 437.432
XW-2C 20 Jan 17:28:57 17:32:46 63° 259° (W) 17:36:34 145.795 - 145.815
CUTE-I 20 Jan 17:39:12 17:44:30 73° 257° (WSW) 17:49:50 437.470
SEEDS 20 Jan 17:42:23 17:46:06 31° 68° (ENE) 17:49:48 437.485
PCSat 20 Jan 17:47:15 17:52:13 35° 46° (NE) 17:57:10 145.827
CUTE 1.7 + AOD 2 20 Jan 17:53:39 17:57:52 66° 74° (ENE) 18:02:07 437.475
CUBEBUG 2 20 Jan 18:02:09 18:06:24 52° 72° (ENE) 18:10:51 437.445
KAITUO 1B 20 Jan 18:04:58 18:08:24 33° 263° (W) 18:11:51 145.475/437.950
BEESAT 3 20 Jan 18:06:08 18:10:05 77° 54° (NE) 18:13:56 437.485
XW-2F 20 Jan 18:06:25 18:09:38 26° 265° (W) 18:12:51 145.980 - 146.000
UWE-3 20 Jan 18:08:27 18:12:30 36° 69° (ENE) 18:16:41 435.000/436.395/437.385
XW-2D 20 Jan 18:16:25 18:19:10 19° 268° (W) 18:21:54 145.860 - 145.880
NUDT-PHONESAT 20 Jan 18:16:52 18:20:03 26° 265° (W) 18:23:14 437.300
STRAND 1 20 Jan 18:18:54 18:21:39 14° 88° (E) 18:24:23 437.568
